Погода в Матлоке

Великобритания     53°08′21″N   1°33′26″W
темп.,
°C
ветер,
м/с
пор.,
м/с
влажн.,
%
обл.,
%
осадки,
мм/ч
давл.,
гПа
погр.,
м
11 апреля, вс
вс1101:00−1с2385100 0.0 101877
04:00−2ссз34907 0.0 101892
07:00−1ссз36867 0.0 1019213
10:00+3с566977 0.1 10201037
13:00+6с4552100 0.8 10201768
16:00+6сз3445100 0.8 10211747
19:00+3сз477216 1.5 1022440
22:00−1зсз24814 0.3 102587
12 апреля, пн
пн1201:00−2з228196 0.3 102519
04:00−1з238299 0.0 102673
07:00−1з128874 0.0 102745
10:00+4ссз236619 0.3 1028909
13:00+6сз225092 1.1 10291571
16:00+7сз3345100 0.4 10291805
19:00+5сз245994 0.6 1030286
22:000зсз117111 0.0 103215
13 апреля, вт
вт1301:00−1зюз21705 0.0 103314
04:00−1з227022 0.0 103319
07:000зюз116896 0.0 103321
10:00+6зюз245299 0.0 1033573
13:00+5з3581100 0.8 1033718
16:00+7зсз4781100 0.4 1031955
19:00+6ссз368599 0.5 1032424
22:00+4св239698 0.0 1033125
14 апреля, ср
ср1401:00+3ссв1194100 0.0 103438
04:00+1св11895 0.0 103410
07:00+1сз11895 0.0 103511
10:00+7св23685 0.0 1035728
13:00+9св3458100 0.1 10351521
16:00+7всв336998 0.1 1035904
19:00+6св347699 0.6 1035693
22:00+1всв22825 0.0 103755
15 апреля, чт
чт1501:000ссв22865 0.0 103726
04:00−1с22905 0.0 103741
07:00−1с23855 0.0 103890
10:00+5св456841 0.0 10381022
13:00+8всв454795 0.0 10371838
16:00+8в665688 0.1 10371398
19:00+5всв57715 0.2 1038701
22:00+1всв37895 0.0 1040188